| time (UTC) | temp F | wind direction | speed MPH | gust MPH | rain 1hr in | rain 24hr in | rain mn in | humidity % | barometer mb |
| 20260905202926 | 80 | 51 | 2.0 | 4.0 | 0.00 | 0.06 | 0.02 | 74 | 1008.3 |
| 20260905202424 | 80 | 66 | 1.0 | 3.0 | 0.00 | 0.06 | 0.02 | 77 | 1008.4 |
| 20260905201923 | 80 | 149 | 0.0 | 2.0 | 0.00 | 0.07 | 0.02 | 75 | 1008.4 |
| 20260905201423 | 81 | 48 | 0.0 | 4.0 | 0.00 | 0.07 | 0.02 | 75 | 1008.5 |
| 20260905200923 | 80 | 48 | 1.0 | 4.0 | 0.00 | 0.07 | 0.02 | 74 | 1008.5 |
| 20260905200729 | 81 | 235 | 0.0 | 3.0 | 0.00 | 0.07 | 0.02 | 75 | 1008.6 |
| 20260905200438 | 81 | 251 | 0.0 | 3.0 | 0.00 | 0.07 | 0.02 | 75 | 1008.5 |
| 20260905195418 | 81 | 72 | 1.0 | 6.0 | 0.00 | 0.07 | 0.02 | 74 | 1008.5 |
| 20260905194918 | 82 | 72 | 1.0 | 6.0 | 0.00 | 0.07 | 0.02 | 72 | 1008.5 |
| 20260905194415 | 82 | 93 | 2.0 | 6.0 | 0.00 | 0.07 | 0.02 | 72 | 1008.7 |
| 20260905193913 | 81 | 68 | 2.0 | 6.0 | 0.00 | 0.07 | 0.02 | 73 | 1008.7 |
| 20260905193414 | 81 | 56 | 1.0 | 4.0 | 0.00 | 0.07 | 0.02 | 75 | 1008.7 |
| 20260905192914 | 81 | 310 | 0.0 | 1.0 | 0.00 | 0.07 | 0.02 | 75 | 1008.7 |
| 20260905192413 | 81 | 309 | 0.0 | 2.0 | 0.00 | 0.08 | 0.02 | 75 | 1008.8 |
| 20260905191914 | 82 | 306 | 1.0 | 3.0 | 0.00 | 0.08 | 0.02 | 73 | 1008.8 |
| 20260905191654 | 81 | 337 | 1.0 | 3.0 | 0.00 | 0.08 | 0.02 | 73 | 1008.7 |
| 20260905190913 | 80 | 37 | 0.0 | 4.0 | 0.00 | 0.08 | 0.02 | 76 | 1008.8 |
| 20260905190412 | 81 | 37 | 0.0 | 5.0 | 0.00 | 0.08 | 0.02 | 74 | 1008.8 |
| 20260905185912 | 81 | 245 | 2.0 | 5.0 | 0.00 | 0.08 | 0.02 | 74 | 1008.8 |
| 20260905185413 | 81 | 54 | 2.0 | 5.0 | 0.00 | 0.08 | 0.02 | 75 | 1009.0 |
| 20260905184911 | 80 | 68 | 1.0 | 3.0 | 0.00 | 0.08 | 0.02 | 75 | 1009.0 |
| 20260905184411 | 80 | 68 | 2.0 | 3.0 | 0.00 | 0.08 | 0.02 | 75 | 1009.1 |
| 20260905183911 | 81 | 203 | 1.0 | 3.0 | 0.00 | 0.08 | 0.02 | 76 | 1009.1 |
| 20260905183412 | 80 | 54 | 1.0 | 3.0 | 0.00 | 0.08 | 0.02 | 74 | 1009.0 |
| 20260905182911 | 80 | 28 | 0.0 | 4.0 | 0.00 | 0.08 | 0.02 | 76 | 1009.1 |
| 20260905182412 | 80 | 32 | 3.0 | 4.0 | 0.01 | 0.09 | 0.02 | 76 | 1009.1 |
| 20260905182218 | 81 | 48 | 1.0 | 6.0 | 0.01 | 0.09 | 0.02 | 74 | 1009.2 |
| 20260905181928 | 81 | 10 | 1.0 | 3.0 | 0.01 | 0.09 | 0.02 | 76 | 1009.3 |
| 20260905180910 | 80 | 45 | 1.0 | 6.0 | 0.01 | 0.09 | 0.02 | 76 | 1009.3 |
| 20260905180411 | 80 | 51 | 2.0 | 4.0 | 0.01 | 0.09 | 0.02 | 75 | 1009.3 |
| 20260905180151 | 80 | 282 | 1.0 | 5.0 | 0.01 | 0.08 | 0.02 | 75 | 1009.4 |
| 20260905175410 | 80 | 278 | 1.0 | 5.0 | 0.01 | 0.08 | 0.02 | 78 | 1009.5 |
| 20260905175143 | 80 | 79 | 1.0 | 2.0 | 0.01 | 0.09 | 0.02 | 79 | 1009.5 |
| 20260905174404 | 80 | 38 | 1.0 | 2.0 | 0.01 | 0.09 | 0.02 | 79 | 1009.5 |
| 20260905174139 | 79 | 38 | 1.0 | 2.0 | 0.01 | 0.09 | 0.02 | 78 | 1009.7 |
| 20260905173402 | 79 | 34 | 0.0 | 2.0 | 0.01 | 0.09 | 0.02 | 79 | 1009.9 |
| 20260905173143 | 79 | 34 | 0.0 | 0.0 | 0.01 | 0.09 | 0.02 | 78 | 1009.8 |
| 20260905172645 | 79 | 34 | 0.0 | 0.0 | 0.00 | 0.09 | 0.01 | 77 | 1009.9 |
| 20260905171903 | 80 | 34 | 0.0 | 0.0 | 0.00 | 0.09 | 0.01 | 81 | 1009.9 |
| 20260905171402 | 79 | 38 | 0.0 | 0.0 | 0.00 | 0.09 | 0.01 | 79 | 1010.0 |
| 20260905170902 | 79 | 38 | 0.0 | 0.0 | 0.00 | 0.10 | 0.01 | 81 | 1010.2 |
| 20260905170402 | 79 | 35 | 0.0 | 0.0 | 0.00 | 0.10 | 0.01 | 82 | 1010.2 |
| 20260905165904 | 79 | 35 | 0.0 | 0.0 | 0.00 | 0.10 | 0.01 | 83 | 1010.2 |
| 20260905165403 | 79 | 35 | 0.0 | 0.0 | 0.00 | 0.10 | 0.01 | 82 | 1010.2 |
| 20260905164843 | 79 | 35 | 0.0 | 0.0 | 0.00 | 0.10 | 0.01 | 80 | 1010.3 |
| 20260905164342 | 79 | 37 | 0.0 | 0.0 | 0.00 | 0.11 | 0.01 | 79 | 1010.2 |
| 20260905163843 | 80 | 37 | 0.0 | 3.0 | 0.00 | 0.11 | 0.01 | 79 | 1010.2 |
| 20260905163342 | 79 | 37 | 1.0 | 3.0 | 0.00 | 0.11 | 0.01 | 79 | 1010.4 |
| 20260905162839 | 79 | 303 | 0.0 | 0.0 | 0.00 | 0.11 | 0.01 | 79 | 1010.3 |
| 20260905162339 | 79 | 303 | 0.0 | 0.0 | 0.00 | 0.11 | 0.01 | 80 | 1010.4 |
| 20260905161838 | 78 | 306 | 0.0 | 0.0 | 0.00 | 0.11 | 0.01 | 81 | 1010.5 |
| 20260905161334 | 78 | 306 | 0.0 | 0.0 | 0.00 | 0.11 | 0.01 | 82 | 1010.5 |
| 20260905160835 | 78 | 306 | 0.0 | 0.0 | 0.00 | 0.11 | 0.01 | 80 | 1010.7 |
| 20260905160335 | 78 | 305 | 0.0 | 0.0 | 0.00 | 0.12 | 0.01 | 82 | 1010.8 |
| 20260905155834 | 78 | 309 | 0.0 | 2.0 | 0.00 | 0.12 | 0.01 | 82 | 1010.6 |
| 20260905155614 | 78 | 307 | 0.0 | 3.0 | 0.00 | 0.12 | 0.01 | 80 | 1010.7 |
| 20260905154833 | 79 | 23 | 0.0 | 3.0 | 0.00 | 0.12 | 0.01 | 80 | 1010.8 |
| 20260905154700 | 78 | 241 | 1.0 | 4.0 | 0.00 | 0.13 | 0.01 | 81 | 1010.7 |
| 20260905154408 | 79 | 285 | 1.0 | 3.0 | 0.00 | 0.13 | 0.01 | 81 | 1010.6 |
| 20260905154131 | 78 | 63 | 1.0 | 3.0 | 0.00 | 0.13 | 0.01 | 82 | 1010.6 |
| 20260905152831 | 78 | 52 | 0.0 | 4.0 | 0.00 | 0.13 | 0.01 | 83 | 1010.7 |
| 20260905152331 | 78 | 278 | 0.0 | 3.0 | 0.00 | 0.13 | 0.01 | 83 | 1010.8 |
| 20260905151830 | 78 | 63 | 0.0 | 2.0 | 0.00 | 0.14 | 0.01 | 83 | 1010.9 |
| 20260905151612 | 78 | 63 | 0.0 | 2.0 | 0.00 | 0.14 | 0.01 | 84 | 1010.8 |
| 20260905150832 | 77 | 63 | 0.0 | 0.0 | 0.00 | 0.14 | 0.01 | 86 | 1011.0 |
| 20260905150332 | 77 | 63 | 0.0 | 1.0 | 0.00 | 0.14 | 0.01 | 85 | 1011.0 |
| 20260905145832 | 77 | 63 | 0.0 | 2.0 | 0.00 | 0.15 | 0.01 | 84 | 1011.0 |
| 20260905145331 | 77 | 63 | 0.0 | 2.0 | 0.00 | 0.15 | 0.01 | 84 | 1011.0 |
| 20260905144830 | 77 | 63 | 0.0 | 1.0 | 0.00 | 0.15 | 0.01 | 82 | 1011.0 |
| 20260905144331 | 77 | 62 | 0.0 | 1.0 | 0.00 | 0.15 | 0.01 | 83 | 1010.9 |
| 20260905144053 | 78 | 63 | 0.0 | 3.0 | 0.00 | 0.15 | 0.01 | 83 | 1010.9 |
| 20260905143310 | 78 | 63 | 1.0 | 3.0 | 0.00 | 0.15 | 0.01 | 82 | 1010.8 |
| 20260905142809 | 77 | 58 | 1.0 | 3.0 | 0.00 | 0.15 | 0.01 | 84 | 1010.8 |
| 20260905142547 | 77 | 114 | 0.0 | 1.0 | 0.00 | 0.15 | 0.01 | 86 | 1010.7 |
| 20260905142045 | 77 | 178 | 0.0 | 2.0 | 0.00 | 0.15 | 0.01 | 86 | 1010.7 |
| 20260905141306 | 77 | 178 | 0.0 | 3.0 | 0.00 | 0.16 | 0.01 | 84 | 1010.6 |
| 20260905140806 | 77 | 183 | 0.0 | 3.0 | 0.00 | 0.16 | 0.01 | 84 | 1010.5 |
| 20260905140307 | 77 | 62 | 1.0 | 3.0 | 0.00 | 0.16 | 0.01 | 85 | 1010.4 |
| 20260905135805 | 77 | 47 | 0.0 | 6.0 | 0.00 | 0.16 | 0.01 | 85 | 1010.3 |
| 20260905135306 | 77 | 37 | 2.0 | 6.0 | 0.00 | 0.16 | 0.01 | 85 | 1010.1 |
| 20260905134804 | 77 | 86 | 1.0 | 3.0 | 0.00 | 0.16 | 0.01 | 87 | 1009.9 |
| 20260905134607 | 77 | 62 | 1.0 | 3.0 | 0.00 | 0.16 | 0.01 | 88 | 1010.0 |
| 20260905134602 | 77 | 94 | 1.0 | 3.0 | 0.00 | 0.16 | 0.01 | 87 | 1009.9 |
| 20260905133306 | 77 | 61 | 0.0 | 3.0 | 0.00 | 0.16 | 0.01 | 88 | 1010.1 |
| 20260905132804 | 76 | 281 | 0.0 | 3.0 | 0.00 | 0.16 | 0.01 | 88 | 1010.0 |
| 20260905132306 | 77 | 316 | 1.0 | 4.0 | 0.00 | 0.17 | 0.01 | 88 | 1010.0 |
| 20260905131803 | 77 | 99 | 0.0 | 4.0 | 0.00 | 0.17 | 0.01 | 89 | 1009.9 |
| 20260905131304 | 77 | 56 | 2.0 | 4.0 | 0.00 | 0.17 | 0.01 | 92 | 1010.1 |
| 20260905130803 | 76 | 27 | 0.0 | 2.0 | 0.00 | 0.17 | 0.01 | 94 | 1010.1 |
| 20260905130304 | 76 | 305 | 1.0 | 2.0 | 0.00 | 0.17 | 0.01 | 95 | 1009.9 |
| 20260905125804 | 75 | 296 | 0.0 | 0.0 | 0.00 | 0.17 | 0.01 | 96 | 1010.0 |
| 20260905125306 | 75 | 296 | 0.0 | 0.0 | 0.00 | 0.17 | 0.01 | 96 | 1010.0 |
| 20260905124803 | 74 | 296 | 0.0 | 0.0 | 0.00 | 0.17 | 0.01 | 97 | 1010.0 |
| 20260905124304 | 74 | 296 | 0.0 | 0.0 | 0.00 | 0.18 | 0.01 | 97 | 1009.9 |
| 20260905123804 | 73 | 296 | 0.0 | 0.0 | 0.00 | 0.18 | 0.01 | 97 | 1009.9 |
| 20260905123303 | 73 | 296 | 0.0 | 0.0 | 0.00 | 0.18 | 0.01 | 97 | 1009.9 |
| 20260905122802 | 73 | 296 | 0.0 | 0.0 | 0.00 | 0.19 | 0.01 | 97 | 1010.0 |
| 20260905122302 | 73 | 296 | 0.0 | 0.0 | 0.00 | 0.19 | 0.01 | 97 | 1009.9 |
| 20260905121803 | 72 | 296 | 0.0 | 0.0 | 0.00 | 0.19 | 0.01 | 97 | 1009.8 |
| 20260905121303 | 71 | 296 | 0.0 | 0.0 | 0.00 | 0.20 | 0.01 | 97 | 1009.9 |
| 20260905121041 | 71 | 296 | 0.0 | 0.0 | 0.00 | 0.20 | 0.01 | 97 | 1009.9 |
| 20260905120303 | 71 | 296 | 0.0 | 0.0 | 0.00 | 0.20 | 0.01 | 97 | 1009.9 |
| 20260905115803 | 71 | 296 | 0.0 | 0.0 | 0.00 | 0.21 | 0.01 | 97 | 1009.8 |
| 20260905115306 | 70 | 296 | 0.0 | 0.0 | 0.00 | 0.21 | 0.01 | 97 | 1009.7 |
| 20260905114802 | 70 | 296 | 0.0 | 0.0 | 0.00 | 0.21 | 0.01 | 97 | 1009.6 |
| 20260905114302 | 70 | 296 | 0.0 | 0.0 | 0.00 | 0.21 | 0.01 | 97 | 1009.6 |
| 20260905113802 | 69 | 296 | 0.0 | 0.0 | 0.00 | 0.21 | 0.01 | 97 | 1009.7 |
| 20260905113302 | 69 | 296 | 0.0 | 0.0 | 0.00 | 0.22 | 0.01 | 97 | 1009.6 |
| 20260905112801 | 69 | 296 | 0.0 | 0.0 | 0.00 | 0.22 | 0.01 | 97 | 1009.5 |
| 20260905112305 | 69 | 296 | 0.0 | 0.0 | 0.00 | 0.22 | 0.01 | 97 | 1009.7 |
| 20260905111803 | 69 | 296 | 0.0 | 0.0 | 0.00 | 0.22 | 0.01 | 97 | 1009.7 |
| 20260905111259 | 69 | 296 | 0.0 | 0.0 | 0.00 | 0.22 | 0.01 | 97 | 1009.8 |
| 20260905110800 | 69 | 296 | 0.0 | 0.0 | 0.00 | 0.22 | 0.01 | 97 | 1009.5 |
| 20260905110259 | 69 | 296 | 0.0 | 0.0 | 0.00 | 0.23 | 0.01 | 97 | 1009.3 |
| 20260905110040 | 69 | 296 | 0.0 | 0.0 | 0.00 | 0.23 | 0.01 | 97 | 1009.2 |
| 20260905105259 | 69 | 296 | 0.0 | 0.0 | 0.01 | 0.23 | 0.01 | 97 | 1009.2 |
| 20260905104800 | 69 | 296 | 0.0 | 0.0 | 0.01 | 0.23 | 0.01 | 97 | 1009.1 |
| 20260905104259 | 69 | 296 | 0.0 | 0.0 | 0.01 | 0.23 | 0.01 | 97 | 1009.1 |
| 20260905103800 | 69 | 296 | 0.0 | 0.0 | 0.01 | 0.23 | 0.01 | 97 | 1009.1 |
| 20260905103300 | 69 | 296 | 0.0 | 0.0 | 0.01 | 0.23 | 0.01 | 97 | 1009.0 |
| 20260905102759 | 69 | 296 | 0.0 | 0.0 | 0.01 | 0.24 | 0.01 | 97 | 1008.9 |
| 20260905102259 | 69 | 296 | 0.0 | 0.0 | 0.01 | 0.24 | 0.01 | 96 | 1008.8 |
| 20260905101745 | 69 | 296 | 0.0 | 0.0 | 0.01 | 0.24 | 0.01 | 97 | 1008.8 |
| 20260905101243 | 69 | 296 | 0.0 | 0.0 | 0.01 | 0.24 | 0.01 | 97 | 1008.9 |
| 20260905100740 | 69 | 296 | 0.0 | 0.0 | 0.01 | 0.24 | 0.01 | 97 | 1008.9 |
| 20260905100235 | 69 | 296 | 0.0 | 0.0 | 0.01 | 0.24 | 0.01 | 97 | 1008.9 |
| 20260905095731 | 69 | 296 | 0.0 | 0.0 | 0.01 | 0.23 | 0.01 | 97 | 1008.8 |
| 20260905095235 | 69 | 296 | 0.0 | 0.0 | 0.00 | 0.24 | 0.00 | 97 | 1008.8 |
| 20260905094731 | 69 | 296 | 0.0 | 0.0 | 0.00 | 0.24 | 0.00 | 97 | 1008.8 |
| 20260905094231 | 69 | 296 | 0.0 | 0.0 | 0.00 | 0.24 | 0.00 | 97 | 1008.8 |
| 20260905093731 | 69 | 296 | 0.0 | 0.0 | 0.00 | 0.24 | 0.00 | 97 | 1008.8 |
| 20260905093231 | 69 | 296 | 0.0 | 0.0 | 0.00 | 0.24 | 0.00 | 97 | 1008.7 |
| 20260905092733 | 69 | 296 | 0.0 | 0.0 | 0.00 | 0.24 | 0.00 | 97 | 1008.8 |
| 20260905092340 | 69 | 296 | 0.0 | 0.0 | 0.00 | 0.25 | 0.00 | 97 | 1008.8 |
| 20260905092323 | 69 | 296 | 0.0 | 0.0 | 0.00 | 0.24 | 0.00 | 97 | 1008.7 |
| 20260905091805 | 69 | 296 | 0.0 | 0.0 | 0.00 | 0.25 | 0.00 | 97 | 1008.8 |
| 20260905091246 | 69 | 296 | 0.0 | 0.0 | 0.00 | 0.25 | 0.00 | 97 | 1008.7 |
| 20260905090232 | 69 | 296 | 0.0 | 0.0 | 0.00 | 0.25 | 0.00 | 97 | 1008.8 |
| 20260905085731 | 69 | 296 | 0.0 | 0.0 | 0.00 | 0.26 | 0.00 | 97 | 1008.8 |
| 20260905085205 | 69 | 296 | 0.0 | 0.0 | 0.00 | 0.26 | 0.00 | 97 | 1008.7 |
| 20260905084705 | 69 | 296 | 0.0 | 1.0 | 0.00 | 0.26 | 0.00 | 97 | 1008.8 |
| 20260905084203 | 69 | 296 | 0.0 | 2.0 | 0.00 | 0.26 | 0.00 | 97 | 1008.7 |
| 20260905083930 | 69 | 296 | 0.0 | 2.0 | 0.00 | 0.26 | 0.00 | 97 | 1008.7 |
| 20260905083710 | 69 | 296 | 0.0 | 2.0 | 0.00 | 0.26 | 0.00 | 97 | 1008.7 |
| 20260905083202 | 69 | 286 | 0.0 | 2.0 | 0.00 | 0.26 | 0.00 | 97 | 1008.6 |
| 20260905082701 | 69 | 350 | 0.0 | 0.0 | 0.00 | 0.27 | 0.00 | 97 | 1008.6 |
| 20260905082441 | 69 | 350 | 0.0 | 0.0 | 0.00 | 0.27 | 0.00 | 97 | 1008.7 |
| 20260905081659 | 69 | 355 | 0.0 | 0.0 | 0.00 | 0.27 | 0.00 | 97 | 1008.6 |
| 20260905081157 | 69 | 10 | 0.0 | 0.0 | 0.00 | 0.28 | 0.00 | 97 | 1008.6 |
| 20260905080655 | 69 | 10 | 0.0 | 0.0 | 0.00 | 0.28 | 0.00 | 97 | 1008.8 |
| 20260905080156 | 69 | 10 | 0.0 | 0.0 | 0.00 | 0.28 | 0.00 | 97 | 1008.9 |
| 20260905075655 | 69 | 10 | 0.0 | 0.0 | 0.00 | 0.28 | 0.00 | 97 | 1009.0 |
| 20260905075155 | 69 | 10 | 0.0 | 0.0 | 0.00 | 0.29 | 0.00 | 97 | 1009.1 |
| 20260905074656 | 69 | 10 | 0.0 | 0.0 | 0.00 | 0.29 | 0.00 | 97 | 1009.1 |
| 20260905074155 | 69 | 10 | 0.0 | 0.0 | 0.00 | 0.29 | 0.00 | 97 | 1009.1 |
| 20260905073656 | 70 | 10 | 0.0 | 0.0 | 0.00 | 0.29 | 0.00 | 97 | 1009.1 |
| 20260905073154 | 70 | 10 | 0.0 | 0.0 | 0.00 | 0.30 | 0.00 | 97 | 1009.1 |
| 20260905072655 | 70 | 10 | 0.0 | 0.0 | 0.00 | 0.30 | 0.00 | 97 | 1009.1 |
| 20260905072433 | 70 | 10 | 0.0 | 0.0 | 0.00 | 0.30 | 0.00 | 97 | 1009.1 |
| 20260905071654 | 70 | 10 | 0.0 | 0.0 | 0.00 | 0.30 | 0.00 | 97 | 1009.1 |
| 20260905071154 | 70 | 10 | 0.0 | 0.0 | 0.00 | 0.31 | 0.00 | 97 | 1009.1 |
| 20260905070655 | 70 | 34 | 0.0 | 0.0 | 0.00 | 0.31 | 0.00 | 97 | 1009.1 |
| 20260905070154 | 70 | 34 | 0.0 | 0.0 | 0.00 | 0.32 | 0.00 | 97 | 1009.1 |
| 20260905065655 | 70 | 34 | 0.0 | 1.0 | 0.00 | 0.32 | 0.00 | 97 | 1009.2 |
| 20260905065153 | 70 | 52 | 0.0 | 1.0 | 0.00 | 0.32 | 0.00 | 97 | 1009.3 |
| 20260905064653 | 70 | 52 | 0.0 | 1.0 | 0.00 | 0.32 | 0.00 | 97 | 1009.2 |
| 20260905064154 | 70 | 52 | 0.0 | 1.0 | 0.00 | 0.33 | 0.00 | 97 | 1009.3 |
| 20260905063654 | 70 | 52 | 0.0 | 1.0 | 0.00 | 0.33 | 0.00 | 96 | 1009.4 |
| 20260905063430 | 70 | 52 | 0.0 | 0.0 | 0.00 | 0.34 | 0.00 | 96 | 1009.6 |
| 20260905062654 | 70 | 52 | 0.0 | 0.0 | 0.00 | 0.34 | 0.00 | 96 | 1009.7 |
| 20260905062153 | 70 | 52 | 0.0 | 0.0 | 0.00 | 0.34 | 0.00 | 97 | 1009.7 |
| 20260905061653 | 71 | 52 | 0.0 | 0.0 | 0.00 | 0.35 | 0.00 | 97 | 1009.9 |
| 20260905061152 | 71 | 52 | 0.0 | 0.0 | 0.00 | 0.35 | 0.00 | 97 | 1010.0 |
| 20260905060720 | 71 | 52 | 0.0 | 0.0 | 0.00 | 0.36 | 0.00 | 97 | 1010.2 |
| 20260905060710 | 71 | 52 | 0.0 | 0.0 | 0.00 | 0.36 | 0.00 | 97 | 1010.0 |
| 20260905055652 | 71 | 52 | 0.0 | 0.0 | 0.00 | 0.36 | 0.00 | 96 | 1010.0 |
| 20260905055153 | 71 | 52 | 0.0 | 0.0 | 0.00 | 0.37 | 0.00 | 96 | 1010.1 |
| 20260905054653 | 71 | 52 | 0.0 | 0.0 | 0.00 | 0.37 | 0.00 | 97 | 1010.1 |
| 20260905054432 | 71 | 52 | 0.0 | 0.0 | 0.00 | 0.38 | 0.00 | 96 | 1010.2 |
| 20260905053653 | 71 | 52 | 0.0 | 0.0 | 0.00 | 0.38 | 0.00 | 96 | 1010.4 |
| 20260905053152 | 71 | 52 | 0.0 | 0.0 | 0.00 | 0.38 | 0.00 | 96 | 1010.5 |
| 20260905052652 | 71 | 52 | 0.0 | 0.0 | 0.00 | 0.39 | 0.00 | 96 | 1010.3 |
| 20260905052152 | 71 | 52 | 0.0 | 0.0 | 0.00 | 0.39 | 0.00 | 97 | 1010.3 |
| 20260905051643 | 71 | 52 | 0.0 | 0.0 | 0.00 | 0.40 | 0.00 | 96 | 1010.4 |
| 20260905051420 | 71 | 52 | 0.0 | 0.0 | 0.00 | 0.40 | 0.00 | 97 | 1010.4 |
| 20260905050917 | 71 | 52 | 0.0 | 0.0 | 0.00 | 0.41 | 0.00 | 97 | 1010.5 |
| 20260905050420 | 71 | 52 | 0.0 | 0.0 | 0.00 | 0.42 | 0.00 | 96 | 1010.5 |
| 20260905045639 | 71 | 52 | 0.0 | 0.0 | 0.00 | 0.42 | 0.00 | 96 | 1010.5 |
| 20260905045416 | 71 | 52 | 0.0 | 0.0 | 0.01 | 0.43 | 0.00 | 96 | 1010.6 |
| 20260905044639 | 71 | 52 | 0.0 | 0.0 | 0.01 | 0.43 | 0.00 | 96 | 1010.6 |
| 20260905044135 | 71 | 52 | 0.0 | 0.0 | 0.01 | 0.44 | 0.00 | 96 | 1010.7 |
| 20260905043636 | 71 | 52 | 0.0 | 0.0 | 0.01 | 0.45 | 0.00 | 96 | 1010.6 |
| 20260905043136 | 71 | 52 | 0.0 | 0.0 | 0.01 | 0.45 | 0.00 | 96 | 1010.6 |
| 20260905042635 | 71 | 52 | 0.0 | 0.0 | 0.01 | 0.46 | 0.00 | 96 | 1010.7 |
| 20260905042132 | 72 | 52 | 0.0 | 0.0 | 0.01 | 0.47 | 0.00 | 96 | 1010.7 |
| 20260905041634 | 72 | 52 | 0.0 | 0.0 | 0.01 | 0.48 | 0.00 | 96 | 1010.8 |
| 20260905041412 | 72 | 52 | 0.0 | 0.0 | 0.01 | 0.48 | 0.00 | 96 | 1010.8 |
| 20260905040634 | 72 | 52 | 0.0 | 0.0 | 0.01 | 0.49 | 0.00 | 96 | 1010.8 |
| 20260905040135 | 72 | 52 | 0.0 | 0.0 | 0.01 | 0.50 | 0.00 | 96 | 1010.9 |
| 20260905035630 | 72 | 52 | 0.0 | 0.0 | 0.01 | 0.50 | 0.51 | 96 | 1010.8 |
| 20260905035130 | 71 | 52 | 0.0 | 0.0 | 0.00 | 0.52 | 0.50 | 96 | 1010.8 |
| 20260905034606 | 71 | 52 | 0.0 | 0.0 | 0.00 | 0.53 | 0.50 | 96 | 1010.9 |
| 20260905034106 | 71 | 52 | 0.0 | 0.0 | 0.00 | 0.54 | 0.50 | 96 | 1011.0 |
| 20260905033603 | 72 | 52 | 0.0 | 0.0 | 0.00 | 0.56 | 0.50 | 96 | 1011.1 |
| 20260905033103 | 72 | 52 | 0.0 | 0.0 | 0.00 | 0.57 | 0.50 | 96 | 1011.0 |
| 20260905032602 | 72 | 52 | 0.0 | 0.0 | 0.00 | 0.59 | 0.50 | 96 | 1011.0 |
| 20260905032103 | 72 | 52 | 0.0 | 0.0 | 0.00 | 0.60 | 0.50 | 96 | 1010.9 |
| 20260905031604 | 72 | 52 | 0.0 | 0.0 | 0.00 | 0.60 | 0.50 | 96 | 1011.0 |
| 20260905031101 | 72 | 52 | 0.0 | 0.0 | 0.00 | 0.60 | 0.50 | 96 | 1011.0 |
| 20260905030845 | 72 | 52 | 0.0 | 0.0 | 0.00 | 0.60 | 0.50 | 96 | 1011.0 |
| 20260905025603 | 72 | 52 | 0.0 | 0.0 | 0.00 | 0.60 | 0.50 | 96 | 1010.9 |
| 20260905025103 | 72 | 52 | 0.0 | 0.0 | 0.01 | 0.60 | 0.50 | 96 | 1010.9 |
| 20260905024840 | 72 | 52 | 0.0 | 0.0 | 0.01 | 0.60 | 0.50 | 96 | 1011.0 |
| 20260905024102 | 72 | 52 | 0.0 | 0.0 | 0.01 | 0.60 | 0.50 | 96 | 1010.9 |
| 20260905023603 | 72 | 52 | 0.0 | 0.0 | 0.01 | 0.60 | 0.50 | 96 | 1010.9 |
| 20260905023343 | 72 | 52 | 0.0 | 0.0 | 0.01 | 0.60 | 0.50 | 96 | 1010.9 |
| 20260905022600 | 72 | 52 | 0.0 | 0.0 | 0.01 | 0.60 | 0.50 | 96 | 1010.9 |
| 20260905022059 | 72 | 52 | 0.0 | 0.0 | 0.01 | 0.60 | 0.50 | 96 | 1010.9 |
| 20260905021838 | 72 | 52 | 0.0 | 0.0 | 0.01 | 0.60 | 0.50 | 96 | 1010.9 |
| 20260905021101 | 72 | 52 | 0.0 | 0.0 | 0.01 | 0.60 | 0.50 | 96 | 1010.8 |
| 20260905020600 | 72 | 52 | 0.0 | 0.0 | 0.01 | 0.60 | 0.50 | 96 | 1010.6 |
| 20260905020056 | 72 | 52 | 0.0 | 0.0 | 0.01 | 0.60 | 0.50 | 96 | 1010.4 |
| 20260905015557 | 72 | 52 | 0.0 | 0.0 | 0.01 | 0.59 | 0.50 | 96 | 1010.4 |
| 20260905015056 | 73 | 52 | 0.0 | 0.0 | 0.00 | 0.59 | 0.49 | 96 | 1010.5 |
| 20260905014555 | 73 | 52 | 0.0 | 0.0 | 0.00 | 0.59 | 0.49 | 96 | 1010.6 |
| 20260905014056 | 73 | 52 | 0.0 | 0.0 | 0.00 | 0.59 | 0.49 | 96 | 1010.6 |
| 20260905013613 | 73 | 52 | 0.0 | 0.0 | 0.00 | 0.59 | 0.49 | 96 | 1010.4 |
| 20260905013607 | 73 | 52 | 0.0 | 0.0 | 0.00 | 0.59 | 0.49 | 96 | 1010.4 |
| 20260905012549 | 73 | 52 | 0.0 | 0.0 | 0.00 | 0.59 | 0.49 | 96 | 1010.4 |
| 20260905012046 | 73 | 52 | 0.0 | 0.0 | 0.00 | 0.59 | 0.49 | 96 | 1010.2 |
| 20260905011546 | 73 | 52 | 0.0 | 0.0 | 0.00 | 0.59 | 0.49 | 96 | 1010.1 |
| 20260905011046 | 73 | 52 | 0.0 | 0.0 | 0.00 | 0.59 | 0.49 | 96 | 1010.1 |
| 20260905010546 | 73 | 52 | 0.0 | 0.0 | 0.00 | 0.59 | 0.49 | 96 | 1010.0 |
| 20260905010047 | 74 | 52 | 0.0 | 0.0 | 0.00 | 0.59 | 0.49 | 95 | 1009.9 |
| 20260905005546 | 73 | 52 | 0.0 | 0.0 | 0.00 | 0.59 | 0.49 | 95 | 1009.8 |
| 20260905005046 | 74 | 52 | 0.0 | 0.0 | 0.00 | 0.59 | 0.49 | 96 | 1009.8 |
| 20260905004546 | 74 | 52 | 0.0 | 0.0 | 0.00 | 0.59 | 0.49 | 96 | 1009.8 |
| 20260905004324 | 74 | 52 | 0.0 | 0.0 | 0.00 | 0.59 | 0.49 | 96 | 1009.8 |
| 20260905003547 | 74 | 52 | 0.0 | 0.0 | 0.00 | 0.59 | 0.49 | 95 | 1010.0 |
| 20260905003046 | 74 | 52 | 0.0 | 0.0 | 0.00 | 0.59 | 0.49 | 95 | 1009.9 |
| 20260905002545 | 74 | 52 | 0.0 | 0.0 | 0.01 | 0.59 | 0.49 | 95 | 1009.8 |
| 20260905002045 | 74 | 52 | 0.0 | 0.0 | 0.01 | 0.59 | 0.49 | 95 | 1009.9 |
| 20260905001546 | 74 | 52 | 0.0 | 0.0 | 0.01 | 0.59 | 0.49 | 95 | 1009.9 |
| 20260905001045 | 74 | 52 | 0.0 | 0.0 | 0.01 | 0.59 | 0.49 | 95 | 1009.9 |
| 20260905000544 | 75 | 52 | 0.0 | 0.0 | 0.01 | 0.59 | 0.49 | 95 | 1009.9 |
| 20260905000325 | 75 | 52 | 0.0 | 0.0 | 0.01 | 0.59 | 0.49 | 95 | 1010.0 |
| 20260904235545 | 75 | 52 | 0.0 | 0.0 | 0.01 | 0.58 | 0.49 | 95 | 1009.9 |
| 20260904235044 | 75 | 52 | 0.0 | 0.0 | 0.01 | 0.58 | 0.49 | 95 | 1009.9 |
| 20260904234544 | 75 | 52 | 0.0 | 0.0 | 0.01 | 0.58 | 0.49 | 95 | 1009.9 |
| 20260904234044 | 75 | 52 | 0.0 | 0.0 | 0.01 | 0.58 | 0.49 | 95 | 1010.0 |
| 20260904233826 | 75 | 52 | 0.0 | 0.0 | 0.01 | 0.58 | 0.49 | 95 | 1010.1 |
| 20260904233044 | 75 | 52 | 0.0 | 0.0 | 0.01 | 0.58 | 0.48 | 95 | 1010.2 |
| 20260904232544 | 75 | 52 | 0.0 | 0.0 | 0.00 | 0.58 | 0.48 | 95 | 1010.2 |
| 20260904232045 | 75 | 52 | 0.0 | 0.0 | 0.00 | 0.58 | 0.48 | 95 | 1010.0 |
| 20260904231544 | 76 | 52 | 0.0 | 0.0 | 0.00 | 0.58 | 0.48 | 95 | 1010.1 |
| 20260904231046 | 76 | 52 | 0.0 | 0.0 | 0.00 | 0.58 | 0.48 | 95 | 1010.2 |
| 20260904230543 | 76 | 52 | 0.0 | 0.0 | 0.00 | 0.58 | 0.48 | 95 | 1010.2 |
| 20260904230106 | 76 | 52 | 0.0 | 0.0 | 0.00 | 0.58 | 0.48 | 95 | 1010.0 |
| 20260904230058 | 76 | 52 | 0.0 | 0.0 | 0.00 | 0.58 | 0.48 | 95 | 1010.1 |
| 20260904225043 | 76 | 52 | 0.0 | 0.0 | 0.01 | 0.58 | 0.48 | 95 | 1010.1 |
| 20260904224544 | 76 | 52 | 0.0 | 0.0 | 0.01 | 0.58 | 0.48 | 95 | 1009.9 |
| 20260904224309 | 76 | 52 | 0.0 | 0.0 | 0.01 | 0.58 | 0.48 | 95 | 1009.9 |
| 20260904223533 | 76 | 52 | 0.0 | 0.0 | 0.01 | 0.58 | 0.48 | 95 | 1009.6 |
| 20260904223031 | 76 | 52 | 0.0 | 0.0 | 0.01 | 0.58 | 0.48 | 95 | 1009.6 |
| 20260904222531 | 76 | 52 | 0.0 | 0.0 | 0.01 | 0.58 | 0.48 | 95 | 1009.9 |
| 20260904222031 | 76 | 52 | 0.0 | 0.0 | 0.01 | 0.58 | 0.48 | 95 | 1010.1 |
| 20260904221532 | 76 | 52 | 0.0 | 0.0 | 0.01 | 0.58 | 0.48 | 94 | 1010.2 |
| 20260904221031 | 76 | 52 | 0.0 | 0.0 | 0.01 | 0.58 | 0.48 | 95 | 1010.1 |
| 20260904220530 | 76 | 52 | 0.0 | 0.0 | 0.01 | 0.58 | 0.48 | 95 | 1010.4 |
| 20260904220032 | 76 | 52 | 0.0 | 0.0 | 0.01 | 0.57 | 0.48 | 94 | 1010.5 |
| 20260904215530 | 75 | 52 | 0.0 | 0.0 | 0.01 | 0.57 | 0.48 | 94 | 1010.6 |
| 20260904215056 | 75 | 52 | 0.0 | 0.0 | 0.00 | 0.57 | 0.47 | 94 | 1010.7 |
| 20260904215048 | 75 | 52 | 0.0 | 0.0 | 0.00 | 0.57 | 0.47 | 94 | 1010.6 |
| 20260904214018 | 75 | 52 | 0.0 | 0.0 | 0.00 | 0.57 | 0.47 | 94 | 1010.7 |
| 20260904213515 | 75 | 52 | 0.0 | 0.0 | 0.00 | 0.57 | 0.47 | 94 | 1010.6 |
| 20260904213015 | 75 | 52 | 0.0 | 0.0 | 0.00 | 0.57 | 0.47 | 93 | 1010.5 |
| 20260904212514 | 75 | 52 | 0.0 | 0.0 | 0.00 | 0.57 | 0.47 | 93 | 1010.7 |
| 20260904212012 | 75 | 52 | 0.0 | 1.0 | 0.01 | 0.57 | 0.47 | 93 | 1010.7 |
| 20260904211511 | 75 | 52 | 0.0 | 2.0 | 0.01 | 0.57 | 0.47 | 92 | 1010.7 |
| 20260904211247 | 76 | 52 | 0.0 | 3.0 | 0.01 | 0.57 | 0.47 | 92 | 1010.8 |
| 20260904210509 | 76 | 52 | 0.0 | 3.0 | 0.01 | 0.57 | 0.47 | 91 | 1010.9 |
| 20260904210010 | 76 | 275 | 0.0 | 5.0 | 0.01 | 0.56 | 0.47 | 90 | 1011.0 |
| 20260904205504 | 77 | 271 | 0.0 | 5.0 | 0.01 | 0.56 | 0.47 | 87 | 1010.7 |
| 20260904205006 | 78 | 345 | 1.0 | 5.0 | 0.01 | 0.56 | 0.47 | 85 | 1011.3 |
| 20260904204505 | 80 | 279 | 2.0 | 6.0 | 0.01 | 0.56 | 0.47 | 82 | 1011.5 |
| 20260904204003 | 83 | 248 | 3.0 | 6.0 | 0.01 | 0.56 | 0.47 | 82 | 1011.7 |
| 20260904203503 | 84 | 35 | 0.0 | 0.0 | 0.01 | 0.56 | 0.47 | 81 | 1011.1 |